This is the latest recevied weather packets stored in our database for station/object IT9RID. If no packets are shown the sender has not sent any weather packets the latest 10 day(s).
| Time | Temp. | Humidity | Pressure | Rain* | Wind** | Luminosity | Snow |
|---|---|---|---|---|---|---|---|
| 1787640384 | 30° C | 61% | 1014.4 hPa | 0 mm | - | - | - |
| 1787639784 | 29.44° C | 66% | 1014.2 hPa | 0 mm | - | - | - |
| 1787639184 | 28.33° C | 69% | 1014.6 hPa | 0 mm | - | - | - |
| 1787638583 | 27.22° C | 69% | 1014.5 hPa | 0 mm | - | - | - |
| 1787637984 | 27.22° C | 70% | 1014.4 hPa | 0 mm | - | - | - |
| 1787637383 | 26.67° C | 71% | 1014.4 hPa | 0 mm | - | - | - |
| 1787636783 | 26.11° C | 72% | 1014.4 hPa | 0 mm | - | - | - |
| 1787636183 | 25.56° C | 73% | 1014.3 hPa | 0 mm | - | - | - |
| 1787635583 | 25.56° C | 74% | 1014.2 hPa | 0 mm | - | - | - |
| 1787634982 | 25° C | 75% | 1014.3 hPa | 0 mm | - | - | - |
| 1787633782 | 25° C | 76% | 1014.4 hPa | 0 mm | - | - | - |
| 1787633182 | 25° C | 76% | 1014.2 hPa | 0 mm | - | - | - |
| 1787632582 | 25° C | 76% | 1014.2 hPa | 0 mm | - | - | - |
| 1787631982 | 25.56° C | 76% | 1014.2 hPa | 0 mm | - | - | - |
| 1787631382 | 25.56° C | 75% | 1014.3 hPa | 0 mm | - | - | - |
| 1787630782 | 25.56° C | 72% | 1014.3 hPa | 0 mm | - | - | - |
| 1787630181 | 25.56° C | 74% | 1014.3 hPa | 0 mm | - | - | - |
| 1787629581 | 25.56° C | 77% | 1014.1 hPa | 0 mm | - | - | - |
| 1787628981 | 25° C | 79% | 1013.9 hPa | 0 mm | - | - | - |
| 1787628381 | 25.56° C | 78% | 1013.8 hPa | 0 mm | - | - | - |
| 1787627781 | 25° C | 76% | 1013.7 hPa | 0 mm | - | - | - |
| 1787627181 | 25° C | 76% | 1013.6 hPa | 0 mm | - | - | - |
| 1787626580 | 25° C | 77% | 1013.4 hPa | 0 mm | - | - | - |
| 1787625980 | 25° C | 77% | 1013.1 hPa | 0 mm | - | - | - |
| 1787625380 | 25° C | 77% | 1013 hPa | 0 mm | - | - | - |
* Rain latest hour (hover to see other rain measurements)
** Current wind speed in m/s (hover to see current wind gust speed)